METEOSAT 6 AKM, 23118

Orbit data source: Space-Track

METEOSAT 6 AKM, 23118 is space debris in GEO originally from a launch on Sat, 20 Nov 1993 UTC launched from the French Guiana (FRGUI). Debris objects in space refer to the collection of defunct objects orbiting the Earth. Examples of debris include non-operational satellites, rocket bodies, and fragments generated from explosions, collisions, or faulty payload assembly.

Loading next visibility...
Identifier
23118, 1993-073E
Orbit
GEO
Country
Flag of ESAESA
Related business
Manufacturer
SEP
Mission
Spacecraft
Bus & Motor
MAGE, Unknown motor
Mass
364 kg wet, ~71 kg dry
Launch date (UTC)
1993-11-20 (32 years ago)
Launch vehicle
Unknown
Launch site
French Guiana (FRGUI)
Object type
Payload
Rocket body
Debris
Shape & HBR
Cyl + Cone, 0.6 m
Radar Cross Section
0.910 m², Medium (>0.1 m² and < 1m²)

Expand to show TLE details & history
Last TLE update: 1 day ago

TLE from 1 day ago
0 METEOSAT 6 AKM
1 23118U 93073E   25300.09818297 -.00000145  00000-0  00000-0 0  9992
2 23118  14.3124 348.8464 0064712 105.9920 244.9897  0.99979427 44855
Epoch: 2025-10-27T02:21Z
TLE epoch observation values (Epoch: 2025-10-27T02:21:23.008Z)
Latitude
-2.38511°
Longitude
-91.62485°
Altitude
35,984.587 km
Speed
3.063 km/s
True Right ascension
22h 37m 42s
True Declination
-2° 22' 58"
Sunlit
Object was in daylight at epoch
Visualization orbit readout
Latitude
Unknown
Longitude
Unknown
Altitude
Unknown
Speed
Unknown
Apparent Right ascension
Unknown
Apparent Declination
Unknown
Sunlit
N/A
Visualization observer readout
Local Sidereal Time
03:10:40
Azimuth
Unknown
Elevation
Unknown
Doppler factor
Unknown
Orbital elements
Apogee altitude
36,143.12 km
Perigee altitude
35,596.332 km
Semi-major axis
42,247.863 km
Eccentricity
0.00647
Inclination
14.3124°
RAAN
348.8464°
Arg. of periapsis
105.992°
True anomaly
244.31999°
Mean anomaly
244.9897°
Eccentric anomaly
244.65462°
Mean motion
0.24994 °/min
Orbital period
1,440.34 mins
BSTAR
0
Loading maneuver chart data...
Computing Atmospheric mass density...
Loading historical data...
Loading historical data...
Loading historical data...
Loading historical data...
Loading historical data...
Loading historical data...
Loading historical data...

Documentation

Showing up to 5 results
|